[[{"header":{"parameterUnit":"m.s-1","parameterCategory":1,"la1":30.2991,"la2":30.254,"lo1":-89.0895,"lo2":-89.0444,"dy":0.0017,"dx":0.0017,"nx":28,"ny":28,"refTime":"2024-07-09T21:00:00:Z","depth":0,"parameterNumber":2,"parameterNumberName":"U-component_of_WINDS"},"data":[0,0,0,0,0,0,0,0,0,0,0,0,0,0,0,0,0,0,0,0,0,0,0,0,0,0,0,0,0,0,0,0,0,0,0,0,0,0,0,0,0,0,0,0,0,0,0,0,0,0,0,0,0,0,0,0,0,0,2.668,2.668,0,2.6736,2.6736,2.6737,2.6719,2.6718,2.6716,2.6715,2.6774,2.6776,2.6779,0,0,0,0,0,0,0,0,0,0,0,0,0,2.6558,2.656,2.668,2.668,2.6681,2.6736,2.6736,2.6737,2.6719,2.6717,2.6716,2.6715,2.6773,2.6776,2.6779,0,0,0,0,0,0,0,0,0,0,0,0,0,2.6612,2.6561,2.6679,2.6678,2.6679,2.6736,2.6737,2.6737,2.6719,2.6717,2.6716,2.6714,2.6772,2.6776,2.678,2.6841,0,0,2.6792,2.6794,0,0,0,0,0,0,0,0,2.6609,2.6617,2.6678,2.6679,2.6679,2.6718,2.6715,2.6772,2.672,2.6704,2.6715,2.6713,2.6757,2.6762,2.6777,2.6844,2.6846,2.6792,2.6795,2.6797,2.6798,0,0,0,0,0,0,0,2.6605,2.6614,2.6702,2.6679,2.668,2.6676,2.6681,2.6726,2.674,2.6705,2.6704,2.6711,2.6757,2.6773,2.6778,2.6847,2.6792,2.6796,2.6798,2.68,2.6969,2.6971,0,0,0,0,0,0,2.6601,2.6611,2.67,2.6704,2.6639,2.6679,2.6686,2.6708,2.6739,2.6743,2.6712,2.671,2.6767,2.6773,2.678,2.6854,2.6797,2.68,2.6803,2.6967,2.6969,2.6971,0,0,0,0,0,0,2.6599,2.6609,2.6698,2.6657,2.6668,2.6683,2.6708,2.671,2.6725,2.6745,2.6747,2.6726,2.6766,2.6774,2.6826,2.6856,2.6802,2.6806,2.6964,2.6967,2.697,2.7003,0,0,0,0,0,0,2.6595,2.6608,2.6631,2.6658,2.667,2.6743,2.671,2.6712,2.6732,2.673,2.6758,2.6761,2.6765,2.682,2.683,2.6861,2.6809,2.6962,2.6966,2.6969,2.7,2.7007,2.7014,0,0,0,0,0,2.6591,2.6638,2.6633,2.6643,2.6699,2.6744,2.6752,2.6755,2.6735,2.6758,2.6771,2.676,2.6851,2.6826,2.6837,2.6869,2.696,2.6965,2.6969,2.6996,2.7006,2.7013,0,0,0,0,0,0,2.6615,2.6642,2.6636,2.6693,2.6717,2.6741,2.6771,2.6764,2.6794,2.679,2.6793,2.6799,2.6853,2.6866,2.6837,2.693,2.6903,2.691,2.692,2.6929,2.6935,2.6931,2.6812,0,0,0,0,0,2.6627,2.6661,2.6683,2.6731,2.6743,2.6755,2.6775,2.6775,2.68,2.681,2.6826,2.6851,2.6885,2.6908,2.694,2.7002,2.7008,2.7029,2.7036,2.7042,2.7048,2.7082,2.7092,2.6987,2.6987,2.6987,0,0,2.6652,2.6671,2.6692,2.6737,2.6755,2.6791,2.6764,2.6802,2.6829,2.6816,2.6866,2.6879,2.6907,2.6964,2.699,2.6977,2.7079,2.7048,2.7052,2.7055,2.7088,2.7098,2.7107,2.699,2.6989,2.6989,0,0,2.6716,2.6734,2.6776,2.6795,2.6824,2.6831,2.6842,2.6868,2.6876,2.6926,2.6917,2.695,2.7008,2.7029,2.7047,2.712,2.7112,2.7131,2.7167,2.7201,2.7209,2.7216,2.7243,2.7252,2.7137,2.7137,2.7137,0,2.6744,2.6797,2.6799,2.6839,2.6859,2.6849,2.6893,2.6911,2.6949,2.6963,2.6948,2.7022,2.704,2.7102,2.712,2.7135,2.7148,2.7127,2.7207,2.7215,2.7222,2.7247,2.7257,2.7139,2.7139,2.7139,2.7138,0,2.683,2.6867,2.6898,2.6934,2.6958,2.7,2.7009,2.7033,2.7032,2.7042,2.7094,2.7115,2.7152,2.7167,2.7166,2.723,2.7221,2.7206,2.7178,2.7234,2.7258,2.7268,2.7142,2.7141,2.7141,2.714,0,0,2.6909,2.6947,2.6959,2.6976,2.7007,2.7036,2.7078,2.7114,2.7134,2.7161,2.7197,2.7247,2.7235,2.7255,2.7257,2.7286,2.7344,2.7268,2.7269,2.7282,2.7416,2.7426,2.7437,2.7338,2.734,2.7342,2.7413,0,2.6976,2.7048,2.7053,2.7119,2.7154,2.7145,2.7182,2.7205,2.7216,2.7247,2.7259,2.7295,2.7275,2.7288,2.7317,2.733,2.737,2.7325,2.7372,2.7373,2.7365,2.745,2.746,2.7527,2.7423,2.7424,2.7425,0,2.7063,2.7092,2.7162,2.7189,2.7204,2.7237,2.7271,2.7301,2.7328,2.7333,2.7357,2.7355,2.7398,2.7369,2.743,2.7399,2.7419,2.7428,2.7431,2.7435,2.7402,2.7456,2.7548,2.7558,2.744,2.7439,2.7438,0,2.7114,2.7172,2.7221,2.7236,2.7268,2.7292,2.7306,2.7332,2.7353,2.7384,2.7398,2.7433,2.7452,2.7479,2.7487,2.7465,2.7548,2.7519,2.7554,2.7554,2.7571,2.757,2.7668,2.7584,2.7584,2.7584,2.7584,0,2.7188,2.7231,2.7245,2.7275,2.7323,2.7328,2.7376,2.739,2.7412,2.7446,2.7441,2.7472,2.748,2.7514,2.752,2.7569,2.7578,2.7584,2.7585,2.7585,2.7584,2.7597,2.7593,2.7586,2.7586,2.7585,2.7585,0,2.7253,2.7264,2.7317,2.7344,2.7352,2.7387,2.741,2.744,2.745,2.7492,2.7503,2.7519,2.7558,2.7569,2.7615,2.762,2.7678,2.7675,2.7669,2.7669,2.7703,2.77,2.7813,2.7828,2.7734,2.7735,2.7736,0,2.73,2.7333,2.7364,2.7385,2.7401,2.7437,2.7459,2.7466,2.7489,2.7523,2.7549,2.7588,2.7618,2.7682,2.7698,2.7734,2.7732,2.7769,2.7737,2.7736,2.7733,2.773,2.7734,2.7775,2.7776,2.7777,2.7777,0,2.7381,2.7385,2.7417,2.7452,2.7479,2.7507,2.7533,2.7552,2.7562,2.7589,2.7629,2.7653,2.7701,2.774,2.7776,2.7792,2.7787,2.7787,2.7797,2.7797,2.7792,2.7795,2.7685,2.7784,2.7784,2.7783,2.7783,2.7782,2.7438,2.7468,2.7494,2.7531,2.7551,2.7577,2.7606,2.762,2.7654,2.7693,2.7695,2.7739,2.7766,2.7815,2.7833,2.7867,2.7856,2.7871,2.7874,2.7878,2.7881,2.7787,2.7874,2.7874,2.7874,2.7873,2.7873,0,2.7519,2.7536,2.757,2.7607,2.7637,2.7629,2.7658,2.7683,2.7722,2.7747,2.7778,2.7825,2.7862,2.7882,2.792,2.7944,2.7942,2.7954,2.7952,2.7956,2.7888,2.7876,2.7954,2.7954,2.7954,2.7954,2.7954,2.7954,2.7565,2.7614,2.7622,2.7682,2.7699,2.7741,2.7759,2.7782,2.7803,2.7855,2.7886,2.7899,2.7922,2.7962,2.7997,2.8001,2.8016,2.8028,2.8032,2.7969,2.796,2.7952,2.7941,2.8031,2.8031,2.8096,2.8097,2.8097]},{"header":{"parameterUnit":"m.s-1","parameterCategory":1,"la1":30.2991,"la2":30.254,"lo1":-89.0895,"lo2":-89.0444,"dy":0.0017,"dx":0.0017,"nx":28,"ny":28,"refTime":"2024-07-09T21:00:00:Z","depth":0,"parameterNumber":3,"parameterNumberName":"V-component_of_WINDS"},"data":[0,0,0,0,0,0,0,0,0,0,0,0,0,0,0,0,0,0,0,0,0,0,0,0,0,0,0,0,0,0,0,0,0,0,0,0,0,0,0,0,0,0,0,0,0,0,0,0,0,0,0,0,0,0,0,0,0,0,0.1701,0.17,0,0.1638,0.1638,0.1637,0.16,0.16,0.16,0.16,0.1534,0.1532,0.1531,0,0,0,0,0,0,0,0,0,0,0,0,0,0.1787,0.1785,0.1701,0.17,0.17,0.1639,0.1638,0.1637,0.16,0.16,0.16,0.16,0.1534,0.1533,0.1531,0,0,0,0,0,0,0,0,0,0,0,0,0,0.1739,0.1785,0.1701,0.1674,0.1671,0.1639,0.1638,0.1637,0.16,0.16,0.16,0.16,0.1535,0.1533,0.153,0.152,0,0,0.1523,0.1522,0,0,0,0,0,0,0,0,0.1742,0.1736,0.1679,0.1676,0.1672,0.1627,0.1644,0.1597,0.16,0.1627,0.16,0.1599,0.1565,0.156,0.1549,0.1517,0.1514,0.1523,0.1521,0.152,0.152,0,0,0,0,0,0,0,0.1745,0.1739,0.1676,0.1678,0.1674,0.1664,0.1657,0.1635,0.1598,0.1625,0.1622,0.1615,0.1563,0.1551,0.1547,0.1513,0.1523,0.1521,0.1519,0.1518,0.1469,0.1469,0,0,0,0,0,0,0.1753,0.1742,0.1678,0.1674,0.1707,0.1663,0.1655,0.1642,0.1598,0.1591,0.1615,0.1613,0.1555,0.155,0.1544,0.1529,0.152,0.1518,0.1517,0.1469,0.1469,0.1469,0,0,0,0,0,0,0.1755,0.1748,0.1681,0.1707,0.1698,0.1662,0.1647,0.1641,0.1629,0.1591,0.1584,0.161,0.1555,0.1548,0.1526,0.1526,0.1517,0.1515,0.1469,0.1469,0.1469,0.1499,0,0,0,0,0,0,0.1758,0.1749,0.1745,0.1707,0.1697,0.1664,0.1647,0.1639,0.1625,0.1622,0.1584,0.1578,0.1554,0.153,0.1524,0.1523,0.1513,0.1469,0.1469,0.1469,0.1498,0.15,0.1502,0,0,0,0,0,0.1761,0.1756,0.1745,0.1738,0.1691,0.1665,0.1658,0.1632,0.1625,0.162,0.1596,0.1579,0.1527,0.1528,0.1521,0.1519,0.1468,0.1469,0.1469,0.1497,0.15,0.1502,0,0,0,0,0,0,0.1794,0.175,0.1738,0.1721,0.1697,0.1658,0.1652,0.1636,0.1613,0.1611,0.1579,0.157,0.1552,0.1533,0.1535,0.1507,0.1496,0.1495,0.152,0.1522,0.1524,0.1529,0.1511,0,0,0,0,0,0.1799,0.1782,0.1744,0.1732,0.1721,0.1689,0.1676,0.1658,0.1631,0.1621,0.1595,0.157,0.1547,0.1534,0.1511,0.1495,0.1486,0.149,0.1492,0.1494,0.1494,0.1483,0.1484,0.147,0.147,0.147,0,0,0.181,0.1784,0.1775,0.1738,0.1718,0.17,0.168,0.1662,0.1648,0.1618,0.1596,0.1576,0.1546,0.1527,0.1517,0.151,0.1495,0.1495,0.1497,0.1495,0.1483,0.1485,0.1486,0.1471,0.147,0.147,0,0,0.182,0.1799,0.1786,0.1766,0.1735,0.1714,0.1711,0.1675,0.1661,0.1638,0.1615,0.1598,0.156,0.1539,0.1524,0.1526,0.1509,0.1519,0.1531,0.1521,0.1522,0.1523,0.1523,0.1523,0.1519,0.1519,0.1519,0,0.1837,0.181,0.1782,0.1765,0.175,0.1722,0.1708,0.169,0.1653,0.1642,0.1636,0.1589,0.1566,0.1541,0.1542,0.153,0.1525,0.1523,0.1524,0.1525,0.1525,0.1525,0.1525,0.152,0.152,0.152,0.152,0,0.1832,0.1813,0.1807,0.1772,0.1756,0.1741,0.171,0.1697,0.168,0.1659,0.1636,0.1608,0.158,0.1572,0.1555,0.1545,0.1542,0.153,0.1519,0.1528,0.1527,0.1527,0.1522,0.1522,0.1521,0.1521,0,0,0.1861,0.1812,0.181,0.1793,0.1757,0.1742,0.1725,0.1698,0.1687,0.1662,0.1647,0.1616,0.1605,0.1587,0.1567,0.1559,0.1561,0.1548,0.1546,0.1551,0.1548,0.1557,0.1558,0.155,0.155,0.155,0.155,0,0.1866,0.1835,0.181,0.1789,0.1771,0.1744,0.1729,0.1705,0.1685,0.1666,0.1643,0.1622,0.1609,0.1598,0.1588,0.1563,0.156,0.1563,0.1535,0.1534,0.1544,0.1557,0.1567,0.1569,0.155,0.155,0.155,0,0.1867,0.1844,0.1821,0.1786,0.1778,0.1765,0.1738,0.172,0.1692,0.1678,0.1658,0.1638,0.1618,0.1609,0.1581,0.1584,0.1571,0.1557,0.1556,0.1552,0.1543,0.1554,0.1569,0.1569,0.1549,0.1549,0.1549,0,0.189,0.1854,0.1835,0.1822,0.1781,0.1773,0.1755,0.1727,0.1712,0.1687,0.1677,0.1651,0.1636,0.1616,0.1588,0.1584,0.1564,0.1552,0.1551,0.1551,0.1548,0.1548,0.1561,0.154,0.1539,0.1539,0.1539,0,0.1898,0.1885,0.1845,0.1834,0.1818,0.1789,0.1774,0.1754,0.1728,0.1712,0.1687,0.1672,0.1637,0.1618,0.1596,0.1576,0.157,0.1557,0.1552,0.156,0.1561,0.1551,0.155,0.154,0.154,0.154,0.154,0,0.1922,0.1894,0.1872,0.1835,0.1826,0.1816,0.1784,0.1771,0.175,0.1729,0.1723,0.1688,0.1664,0.1635,0.1601,0.1587,0.1569,0.1561,0.1579,0.1576,0.1576,0.1576,0.1582,0.1581,0.1561,0.1561,0.1561,0,0.1928,0.1918,0.188,0.1867,0.1851,0.1831,0.1816,0.1786,0.1771,0.1737,0.1729,0.1703,0.1681,0.1643,0.1615,0.1589,0.158,0.1583,0.1575,0.1584,0.1579,0.158,0.1579,0.1585,0.1586,0.1586,0.1586,0,0.1943,0.193,0.1909,0.1884,0.1866,0.1844,0.1821,0.1812,0.1778,0.1762,0.1737,0.172,0.1686,0.166,0.1631,0.1611,0.1593,0.1589,0.1587,0.1595,0.1606,0.16,0.1584,0.1589,0.1589,0.1589,0.1588,0.1588,0.1958,0.1947,0.1919,0.1896,0.1876,0.1855,0.1842,0.1818,0.1798,0.1768,0.1751,0.1727,0.1698,0.1657,0.1638,0.1618,0.1612,0.1609,0.1609,0.1608,0.1611,0.161,0.1613,0.1613,0.1612,0.1612,0.1612,0,0.1971,0.1952,0.1931,0.19,0.1883,0.1867,0.1841,0.1827,0.1806,0.1781,0.176,0.1731,0.1706,0.1676,0.1649,0.1638,0.1629,0.1632,0.1633,0.1628,0.1618,0.1622,0.164,0.164,0.164,0.164,0.164,0.164,0.1976,0.1957,0.1941,0.1911,0.1891,0.1868,0.1854,0.1835,0.1814,0.1784,0.1763,0.1744,0.1716,0.1687,0.1663,0.1655,0.1646,0.1651,0.164,0.1632,0.1629,0.1627,0.1631,0.165,0.165,0.1652,0.1652,0.1652]}]]